DELTA 1 DEB, 4841

Orbit data source: Space-Track

DELTA 1 DEB, 4841 is space debris originally from a launch on Thu, 04 Jul 1968 UTC launched from the Air Force Western Test Range (AFWTR). Debris objects in space refer to the collection of defunct objects orbiting the Earth. Examples of debris include non-operational satellites, rocket bodies, and fragments generated from explosions, collisions, or faulty payload assembly.

Loading next visibility...
Identifier
4841, 1968-055D
Orbit
Active
Country
Flag of USUS
Related business
Manufacturer
Unknown
Mission
Spacecraft
Bus & Motor
Unknown
Mass
Unknown
Launch date (UTC)
1968-07-04 (58 years ago)
Launch vehicle
Unknown
Launch site
Air Force Western Test Range (AFWTR)
Object type
Payload
Rocket body
Debris
Shape & HBR
Unknown shape, 0.1 m
Radar Cross Section
Small (<0.1 m²)

Expand to show TLE details & history
Last TLE update: 7 hours ago

TLE from 7 hours ago
0 DELTA 1 DEB
1  4841U 68055D   26035.74023927 -.00000001  00000-0  68659-4 0  9991
2  4841 120.7502  58.1785 2695281 159.2681 344.2434  9.29235010123129
Epoch: 2026-02-04T17:45Z
TLE epoch observation values (Epoch: 2026-02-04T17:45:56.672Z)
Latitude
40.31539°
Longitude
-133.07614°
Altitude
784.12 km
Speed
8.35 km/s
True Right ascension
17h 53m 14s
True Declination
40° 08' 47"
Sunlit
Object was in daylight at epoch
Visualization orbit readout
Latitude
Unknown
Longitude
Unknown
Altitude
Unknown
Speed
Unknown
Apparent Right ascension
Unknown
Apparent Declination
Unknown
Sunlit
N/A
Visualization observer readout
Local Sidereal Time
02:23:31
Azimuth
Unknown
Elevation
Unknown
Doppler factor
Unknown
Orbital elements
Apogee altitude
5,753.947 km
Perigee altitude
602.525 km
Semi-major axis
9,556.373 km
Eccentricity
0.26953
Inclination
120.7502°
RAAN
58.1785°
Arg. of periapsis
159.2681°
True anomaly
332.03967°
Mean anomaly
344.2434°
Eccentric anomaly
338.61158°
Mean motion
2.32329 °/min
Orbital period
154.95 mins
BSTAR
0.000068659
Loading maneuver chart data...
Computing Atmospheric mass density...
Loading historical data...
Loading historical data...
Loading historical data...
Loading historical data...
Loading historical data...
Loading historical data...
Loading historical data...

Documentation

Showing up to 5 results
|